DAL867 KSLC-KBOI

Flight info

Callsign DAL867
Flight time N/A
Altitude 32000
Route CGULL1 TWF BROPH SPUUD4
Aircraft A321/M-SDE3FGHIRWY/LB1

Departure

Time N/A
Airport Salt Lake City International Airport (KSLC)

Arrival

Time 2026-05-07 05:15
Airport Boise Air Terminal/Gowen Field (KBOI)
Time Latitude Longitude Altitude Speed Heading
2026-05-07 05:10 43.62962 -116.48234 4988 ft 173 kts 83°
2026-05-07 05:10 43.63126 -116.46574 4998 ft 173 kts 83°
2026-05-07 05:11 43.63289 -116.44923 5002 ft 173 kts 84°
2026-05-07 05:11 43.63240 -116.43269 5030 ft 172 kts 103°
2026-05-07 05:11 43.62878 -116.41692 5021 ft 172 kts 112°
2026-05-07 05:11 43.62420 -116.40147 5014 ft 172 kts 115°
2026-05-07 05:12 43.61932 -116.38654 4983 ft 169 kts 116°
2026-05-07 05:12 43.61433 -116.37185 4807 ft 165 kts 116°
2026-05-07 05:12 43.60941 -116.35756 4586 ft 164 kts 116°
2026-05-07 05:12 43.60450 -116.34328 4373 ft 163 kts 116°
2026-05-07 05:13 43.59964 -116.32909 4160 ft 162 kts 116°
2026-05-07 05:13 43.59480 -116.31491 3945 ft 161 kts 116°
2026-05-07 05:13 43.58997 -116.30074 3735 ft 161 kts 117°
2026-05-07 05:13 43.58522 -116.28692 3516 ft 159 kts 117°
2026-05-07 05:14 43.58038 -116.27284 3320 ft 158 kts 116°
2026-05-07 05:14 43.57559 -116.25904 3102 ft 157 kts 117°
2026-05-07 05:14 43.57097 -116.24528 2936 ft 156 kts 117°
2026-05-07 05:14 43.56649 -116.23199 2855 ft 143 kts 119°
2026-05-07 05:15 43.56303 -116.22213 2866 ft 88 kts 115°
2026-05-07 05:15 43.56088 -116.21589 2872 ft 58 kts 114°
2026-05-07 05:15 43.56020 -116.21275 2875 ft 17 kts 54°
2026-05-07 05:15 43.56089 -116.21224 2876 ft 9 kts 24°
2026-05-07 05:16 43.56145 -116.21191 2877 ft 8 kts 24°
2026-05-07 05:16 43.56198 -116.21157 2878 ft 8 kts 25°
2026-05-07 05:16 43.56251 -116.21126 2879 ft 4 kts 359°
2026-05-07 05:16 43.56280 -116.21172 2878 ft 7 kts 304°
2026-05-07 05:17 43.56309 -116.21240 2877 ft 8 kts 294°
2026-05-07 05:17 43.56332 -116.21313 2877 ft 8 kts 294°
2026-05-07 05:17 43.56357 -116.21390 2876 ft 9 kts 294°
2026-05-07 05:17 43.56389 -116.21486 2874 ft 12 kts 295°
2026-05-07 05:18 43.56442 -116.21641 2871 ft 22 kts 295°
2026-05-07 05:18 43.56508 -116.21835 2870 ft 21 kts 294°
2026-05-07 05:18 43.56572 -116.22024 2867 ft 15 kts 293°
2026-05-07 05:18 43.56609 -116.22070 2867 ft 4 kts
2026-05-07 05:19 43.56636 -116.22047 2867 ft 4 kts 58°
2026-05-07 05:19 43.56646 -116.22013 2867 ft 3 kts 47°
2026-05-07 05:19 43.56669 -116.21989 2867 ft 4 kts 35°
2026-05-07 05:19 43.56690 -116.21972 2867 ft 3 kts 31°